OBJECT K, 49404

Orbit data source: Space-Track

You're viewing an Uncataloged Satellite

Recently launched and/or uncataloged satellites may have evolving metadata. Metadata may include but not limited to: Owner, Maufacturer, Bus, Motor, and Mission.

OBJECT K, 49404 is a satellite owned by ISAS/JAXA (JP) in SSO that was launched on Tue, 09 Nov 2021 UTC launched from the Kagoshima Space Center University Of Tokyo (KSCUT). Unknown objects in Earth's orbit typically refer to objects detected orbiting the Earth but have not yet been identified or cataloged. These objects could be anything from previously untracked satellites, spent rocket stages, debris from satellite collisions, or even natural meteoroids temporarily captured by Earth's gravity.

Loading next visibility...
Identifier
49404, 2021-102K
Orbit
SSO
Country
Flag of JPJP / JPN
Related business
Manufacturer
JAXA
Mission
Spacecraft
Bus & Motor
EPBS, Unknown motor
Mass
~185 kg wet, ~185 kg dry
Launch date (UTC)
2021-11-09 (4 years ago)
Launch vehicle
Unknown
Launch site
Kagoshima Space Center University Of Tokyo (KSCUT)
Object type
Unknown
Shape & HBR
Cyl, 0.8 m
Radar Cross Section
2.297 m², Large (>1 m²)

Expand to show TLE details & history
Last TLE update: 12 hours ago

TLE from 12 hours ago
0 OBJECT K
1 49404U 21102K   26095.08132115  .00007312  00000-0  32590-3 0  9995
2 49404  97.3332 138.1648 0020361 112.2261 248.1138 15.21526751242761
Epoch: 2026-04-05T01:57Z
TLE epoch observation values (Epoch: 2026-04-05T01:57:06.147Z)
Latitude
0.00002°
Longitude
-84.50268°
Altitude
509.576 km
Speed
7.606 km/s
True Right ascension
09h 12m 39s
True Declination
0° 00' 00"
Sunlit
Object was in full shadow at epoch
Visualization orbit readout
Latitude
Unknown
Longitude
Unknown
Altitude
Unknown
Speed
Unknown
Apparent Right ascension
Unknown
Apparent Declination
Unknown
Sunlit
N/A
Visualization observer readout
Local Sidereal Time
19:27:02
Azimuth
Unknown
Elevation
Unknown
Doppler factor
Unknown
Orbital elements
Apogee altitude
512.196 km
Perigee altitude
484.195 km
Semi-major axis
6,876.332 km
Eccentricity
0.00204
Inclination
97.3332°
RAAN
138.1648°
Arg. of periapsis
112.2261°
True anomaly
247.8975°
Mean anomaly
248.1138°
Eccentric anomaly
248.00563°
Mean motion
3.80634 °/min
Orbital period
94.58 mins
BSTAR
0.0003259
Loading maneuver chart data...
Computing Atmospheric mass density...
Loading historical data...
Loading historical data...
Loading historical data...
Loading historical data...
Loading historical data...
Loading historical data...
Loading historical data...

Documentation

Showing up to 5 results
|